When you browse on this site, cookies collect data to enhance your experience and personalize the content and advertising you see.
Visit our Privacy Policy to learn more. By continuing to use the site, you agree to this use of cookies and data.
  • In United Kingdom
  • List of Countries
  • For 7 days
  • Water Temperature
  • Satellite Maps
  • Weather Map
  • Weather Widgets
  • user-avatar
    Login

    Hourly Weather Malikrabat

    Today, 26 March, Tuesday

    Time Temperature Precipitation Wind Pressure Humidity
    00:00 +20°C° 0 mm 6 mps 730 mmHg 34%
    01:00 +19°C° 0 mm 6 mps 730 mmHg 35%
    02:00 +19°C° 0 mm 6 mps 730 mmHg 34%
    03:00 +19°C° 0 mm 6 mps 730 mmHg 33%
    04:00 +19°C° 0 mm 6 mps 729 mmHg 33%
    05:00 +19°C° 0 mm 5 mps 729 mmHg 33%
    06:00 +19°C° 0 mm 5 mps 730 mmHg 32%
    07:00 +19°C° 0 mm 4 mps 730 mmHg 32%
    08:00 +20°C° 0 mm 5 mps 730 mmHg 33%
    09:00 +20°C° 0 mm 6 mps 730 mmHg 34%
    10:00 +21°C° 0 mm 6 mps 731 mmHg 35%
    11:00 +20°C° 0.3 mm 6 mps 731 mmHg 43%
    12:00 +19°C° 0.3 mm 5 mps 731 mmHg 52%
    13:00 +18°C° 0.3 mm 4 mps 731 mmHg 60%
    14:00 +17°C° 0.7 mm 4 mps 731 mmHg 60%
    15:00 +17°C° 0.7 mm 3 mps 730 mmHg 60%
    16:00 +16°C° 0.7 mm 3 mps 730 mmHg 60%
    17:00 +16°C° 1.3 mm 3 mps 731 mmHg 65%
    18:00 +14°C° 1.3 mm 3 mps 731 mmHg 70%
    19:00 +15°C° 1.3 mm 2 mps 731 mmHg 75%
    20:00 +15°C° 1.2 mm 2 mps 731 mmHg 76%
    21:00 +15°C° 1.2 mm 2 mps 731 mmHg 77%
    22:00 +15°C° 1.2 mm 2 mps 731 mmHg 78%
    23:00 +14°C° 0 mm 3 mps 731 mmHg 77%

    Tomorrow, 27 March, Wednesday

    Time Temperature Precipitation Wind Pressure Humidity
    00:00 +14°C° 0 mm 3 mps 730 mmHg 76%
    01:00 +14°C° 0 mm 3 mps 730 mmHg 75%
    02:00 +14°C° 0 mm 3 mps 730 mmHg 74%
    03:00 +14°C° 0 mm 3 mps 729 mmHg 73%
    04:00 +14°C° 0 mm 3 mps 729 mmHg 72%
    05:00 +14°C° 0.9 mm 4 mps 729 mmHg 72%
    06:00 +14°C° 0.9 mm 4 mps 729 mmHg 73%
    07:00 +14°C° 0.9 mm 5 mps 728 mmHg 73%
    08:00 +15°C° 0 mm 4 mps 728 mmHg 71%
    09:00 +17°C° 0 mm 3 mps 728 mmHg 68%
    10:00 +18°C° 0 mm 2 mps 728 mmHg 66%
    11:00 +19°C° 0.1 mm 3 mps 728 mmHg 65%
    12:00 +19°C° 0.1 mm 3 mps 728 mmHg 63%
    13:00 +20°C° 0.1 mm 3 mps 727 mmHg 62%
    14:00 +21°C° 0.1 mm 3 mps 727 mmHg 56%
    15:00 +23°C° 0.1 mm 4 mps 727 mmHg 49%
    16:00 +25°C° 0.1 mm 4 mps 727 mmHg 43%
    17:00 +22°C° 0.2 mm 4 mps 727 mmHg 51%
    18:00 +21°C° 0.2 mm 3 mps 727 mmHg 60%
    19:00 +19°C° 0.2 mm 3 mps 728 mmHg 68%
    20:00 +18°C° 0.1 mm 3 mps 728 mmHg 70%
    21:00 +18°C° 0.1 mm 3 mps 728 mmHg 73%
    22:00 +17°C° 0.1 mm 3 mps 729 mmHg 75%
    23:00 +17°C° 0.1 mm 2 mps 729 mmHg 77%

    Day after tomorrow, 28 March, Thursday

    Time Temperature Precipitation Wind Pressure Humidity
    00:00 +16°C° 0.1 mm 2 mps 729 mmHg 79%
    01:00 +16°C° 0.1 mm 1 mps 729 mmHg 81%
    02:00 +16°C° 0.1 mm 2 mps 729 mmHg 83%
    03:00 +15°C° 0.1 mm 2 mps 729 mmHg 84%
    04:00 +15°C° 0.1 mm 2 mps 730 mmHg 86%
    05:00 +15°C° 0 mm 2 mps 730 mmHg 86%
    06:00 +14°C° 0 mm 3 mps 731 mmHg 85%
    07:00 +13°C° 0 mm 3 mps 731 mmHg 85%
    08:00 +14°C° 0 mm 3 mps 731 mmHg 77%
    09:00 +16°C° 0 mm 3 mps 732 mmHg 70%
    10:00 +17°C° 0 mm 2 mps 732 mmHg 62%
    11:00 +18°C° 0 mm 3 mps 732 mmHg 57%
    12:00 +19°C° 0 mm 3 mps 732 mmHg 52%
    13:00 +20°C° 0 mm 3 mps 732 mmHg 46%
    14:00 +20°C° 0 mm 3 mps 732 mmHg 44%
    15:00 +20°C° 0 mm 3 mps 731 mmHg 41%
    16:00 +20°C° 0 mm 3 mps 731 mmHg 39%
    17:00 +20°C° 0 mm 3 mps 731 mmHg 40%
    18:00 +19°C° 0 mm 3 mps 731 mmHg 42%
    19:00 +18°C° 0 mm 3 mps 732 mmHg 44%
    20:00 +18°C° 0 mm 3 mps 731 mmHg 45%
    21:00 +17°C° 0 mm 4 mps 731 mmHg 47%
    22:00 +17°C° 0 mm 4 mps 731 mmHg 49%
    23:00 +15°C° 0 mm 4 mps 731 mmHg 50%

    29 March, Friday

    Time Temperature Precipitation Wind Pressure Humidity
    00:00 +15°C° 0 mm 5 mps 731 mmHg 50%
    01:00 +15°C° 0 mm 5 mps 730 mmHg 50%
    02:00 +14°C° 0 mm 4 mps 730 mmHg 52%
    03:00 +14°C° 0 mm 4 mps 730 mmHg 54%
    04:00 +14°C° 0 mm 4 mps 730 mmHg 56%
    05:00 +14°C° 0 mm 4 mps 731 mmHg 57%
    06:00 +14°C° 0 mm 4 mps 731 mmHg 58%
    07:00 +14°C° 0 mm 5 mps 731 mmHg 59%
    08:00 +14°C° 0 mm 5 mps 731 mmHg 56%
    09:00 +15°C° 0 mm 6 mps 731 mmHg 53%
    10:00 +16°C° 0 mm 7 mps 731 mmHg 50%
    11:00 +17°C° 0 mm 7 mps 731 mmHg 47%
    12:00 +17°C° 0 mm 6 mps 731 mmHg 44%
    13:00 +19°C° 0 mm 6 mps 731 mmHg 40%
    14:00 +19°C° 0 mm 6 mps 731 mmHg 41%
    15:00 +18°C° 0 mm 7 mps 731 mmHg 41%
    16:00 +17°C° 0 mm 7 mps 731 mmHg 42%
    17:00 +17°C° 0 mm 6 mps 731 mmHg 44%
    18:00 +16°C° 0 mm 6 mps 732 mmHg 47%
    19:00 +15°C° 0 mm 5 mps 732 mmHg 49%
    20:00 +15°C° 0 mm 4 mps 733 mmHg 51%
    21:00 +14°C° 0 mm 3 mps 733 mmHg 53%
    22:00 +14°C° 0 mm 3 mps 734 mmHg 54%
    23:00 +14°C° 0 mm 3 mps 734 mmHg 55%

    30 March, Saturday

    Time Temperature Precipitation Wind Pressure Humidity
    00:00 +14°C° 0 mm 2 mps 734 mmHg 56%
    01:00 +14°C° 0 mm 2 mps 734 mmHg 57%
    02:00 +13°C° 0 mm 2 mps 735 mmHg 57%
    03:00 +13°C° 0 mm 2 mps 735 mmHg 56%
    04:00 +12°C° 0 mm 1 mps 735 mmHg 56%
    05:00 +13°C° 0 mm 1 mps 736 mmHg 53%
    06:00 +14°C° 0 mm 1 mps 736 mmHg 49%
    07:00 +13°C° 0 mm 0 mps 737 mmHg 46%
    08:00 +15°C° 0 mm 1 mps 737 mmHg 42%
    09:00 +16°C° 0 mm 1 mps 737 mmHg 38%
    10:00 +18°C° 0 mm 1 mps 737 mmHg 35%
    11:00 +19°C° 0 mm 1 mps 737 mmHg 32%
    12:00 +20°C° 0 mm 1 mps 737 mmHg 30%
    13:00 +20°C° 0 mm 1 mps 736 mmHg 28%
    14:00 +21°C° 0 mm 1 mps 736 mmHg 27%
    15:00 +21°C° 0 mm 1 mps 736 mmHg 26%
    16:00 +21°C° 0 mm 1 mps 736 mmHg 25%
    17:00 +21°C° 0 mm 1 mps 736 mmHg 28%
    18:00 +19°C° 0 mm 2 mps 736 mmHg 30%
    19:00 +18°C° 0 mm 2 mps 736 mmHg 33%
    20:00 +18°C° 0 mm 2 mps 736 mmHg 35%
    21:00 +17°C° 0 mm 2 mps 736 mmHg 37%
    22:00 +16°C° 0 mm 2 mps 736 mmHg 39%
    23:00 +16°C° 0 mm 1 mps 736 mmHg 39%

    31 March, Sunday

    Time Temperature Precipitation Wind Pressure Humidity
    00:00 +16°C° 0 mm 1 mps 735 mmHg 40%
    01:00 +15°C° 0 mm 1 mps 735 mmHg 41%
    02:00 +15°C° 0 mm 1 mps 735 mmHg 42%
    03:00 +15°C° 0 mm 1 mps 735 mmHg 42%
    04:00 +14°C° 0 mm 1 mps 735 mmHg 43%
    05:00 +15°C° 0 mm 2 mps 735 mmHg 42%
    06:00 +16°C° 0 mm 2 mps 735 mmHg 41%
    07:00 +16°C° 0 mm 2 mps 736 mmHg 40%
    08:00 +18°C° 0 mm 3 mps 736 mmHg 37%
    09:00 +19°C° 0 mm 3 mps 737 mmHg 35%
    10:00 +20°C° 0 mm 4 mps 737 mmHg 33%
    11:00 +19°C° 0 mm 4 mps 737 mmHg 36%
    12:00 +19°C° 0 mm 5 mps 737 mmHg 39%
    13:00 +19°C° 0 mm 5 mps 737 mmHg 41%
    14:00 +19°C° 0 mm 5 mps 737 mmHg 42%
    15:00 +19°C° 0 mm 5 mps 737 mmHg 43%
    16:00 +19°C° 0 mm 6 mps 737 mmHg 44%
    17:00 +16°C° 0 mm 6 mps 737 mmHg 49%
    18:00 +15°C° 0 mm 6 mps 737 mmHg 55%
    19:00 +14°C° 0 mm 6 mps 738 mmHg 60%
    20:00 +13°C° 0 mm 6 mps 738 mmHg 61%
    21:00 +13°C° 0 mm 5 mps 738 mmHg 61%
    22:00 +13°C° 0 mm 4 mps 738 mmHg 62%
    23:00 +12°C° 0 mm 4 mps 738 mmHg 64%
    Show more